Regional Weather Roundup
Issued by NWS Little Rock, AR

Home | Current Version | Previous Version | Graphics & Text | Print | Product List | Glossary On
Versions: 1 2 3 4 5 6 7 8 9 10 11 12 13 14 15 16 17 18 19 20 21 22 23 24 25 26 27 28 29 30 31 32 33 34 35 36 37 38 39 40 41 42 43 44 45 46 47 48 49 50
599
ASUS44 KLZK 060005
RWRLZK

WEATHER ROUNDUP FOR ARKANSAS
NATIONAL WEATHER SERVICE LITTLE ROCK AR
700 PM CDT THU MAY 05 2016

NOTE: "FAIR" INDICATES FEW OR NO CLOUDS BELOW 12,000 FEET WITH NO
SIGNIFICANT WEATHER AND/OR OBSTRUCTIONS TO VISIBILITY.

ARZ001-003-010-029-060100-
NORTHWEST ARKANSAS

CITY           SKY/WX    TMP DP  RH WIND       PRES   REMARKS
FAYETTEVILLE   SUNNY     70  43  37 N5        30.01S
6HR MIN TEMP:  69; 6HR MAX TEMP:  73;

FORT SMITH     SUNNY     75  41  29 N14       29.97F
6HR MIN TEMP:  75; 6HR MAX TEMP:  79;

HARRISON       SUNNY     68  36  30 N6        30.00F
6HR MIN TEMP:  68; 6HR MAX TEMP:  73;

BENTONVILLE    SUNNY     70  41  35 N8        30.03S
6HR MIN TEMP:  70; 6HR MAX TEMP:  73;

ROGERS         SUNNY     68  40  35 N6        30.02F
6HR MIN TEMP:  68; 6HR MAX TEMP:  72;

SILOAM SPGS    SUNNY     70  45  40 N9        30.02F
6HR MIN TEMP:  70; 6HR MAX TEMP:  72;

HIGHFILL       SUNNY     70  44  39 N8        30.02S
6HR MIN TEMP:  70; 6HR MAX TEMP:  76;

SPRINGDALE     SUNNY     70  41  35 N8        30.03F
$$

ARZ004-005-016-060100-
NORTH CENTRAL ARKANSAS

CITY           SKY/WX    TMP DP  RH WIND       PRES   REMARKS
BATESVILLE     SUNNY     72  34  25 NW3       29.96S
6HR MIN TEMP:  72; 6HR MAX TEMP:  73;

FLIPPIN        SUNNY    N/A N/A N/A N6        29.96S
MTN HOME       SUNNY     69  30  23 VRB3      29.98S
6HR MIN TEMP:  69; 6HR MAX TEMP:  72;

$$

ARZ040-041-060100-
WEST CENTRAL ARKANSAS

CITY           SKY/WX    TMP DP  RH WIND       PRES   REMARKS
MENA           SUNNY     73  45  35 N5        29.99S
MOUNT IDA      SUNNY     73  44  35 NW5       29.95S
6HR MIN TEMP:  73; 6HR MAX TEMP:  77;

$$

ARZ009-017-025-026-028-060100-
NORTHEAST ARKANSAS

CITY           SKY/WX    TMP DP  RH WIND       PRES   REMARKS
CORNING          N/A     68  39  34 NE12      29.97S
JONESBORO      CLEAR     70  37  29 NE12      29.95S
6HR MIN TEMP:  69; 6HR MAX TEMP:  73;

NEWPORT        CLEAR     71  34  25 N13       29.96S
6HR MIN TEMP:  71; 6HR MAX TEMP:  74;

WALNUT RIDGE   CLEAR     70  36  28 N9        29.96R
6HR MIN TEMP:  70; 6HR MAX TEMP:  73;

BLYTHEVILLE    CLEAR     65  43  44 NE18      29.97S
6HR MIN TEMP:  65; 6HR MAX TEMP:  72;

$$

ARZ022-023-033-042-044-060100-
CENTRAL ARKANSAS

CITY           SKY/WX    TMP DP  RH WIND       PRES   REMARKS
LITTLE ROCK    SUNNY     74  39  28 N10       29.94F
6HR MIN TEMP:  74; 6HR MAX TEMP:  79;

N LITTLE ROCK    N/A     71  43  36 N6        29.94S
6HR MIN TEMP:  71; 6HR MAX TEMP:  75;

JACKSONVILLE   SUNNY     73  40  30 N6        29.94S
6HR MIN TEMP:  73; 6HR MAX TEMP:  77;

SEARCY         SUNNY     72  39  30 N9        29.97R
6HR MIN TEMP:  72; 6HR MAX TEMP:  75;

HOT SPRINGS    SUNNY     75  42  30 VRB6      29.95F
6HR MIN TEMP:  74; 6HR MAX TEMP:  77;

RUSSELLVILLE   SUNNY     75  38  26 N8        29.95S
6HR MIN TEMP:  72; 6HR MAX TEMP:  79;

CLINTON        FAIR      72  37  28 CALM      29.97S
$$

ARZ036-060100-
EAST ARKANSAS

CITY           SKY/WX    TMP DP  RH WIND       PRES   REMARKS
WEST MEMPHIS   CLEAR     68  40  35 N10       29.93F
6HR MIN TEMP:  68; 6HR MAX TEMP:  71;

$$

ARZ050-053-066-070-073-060100-
SOUTHWEST ARKANSAS

CITY           SKY/WX    TMP DP  RH WIND       PRES   REMARKS
ARKADELPHIA    FAIR      76  52  43 N3        29.95F
6HR MIN TEMP:  73; 6HR MAX TEMP:  78;

CAMDEN         SUNNY     73  41  31 NW3       29.94F
TEXARKANA      SUNNY     77  46  33 NW3       29.96S
6HR MIN TEMP:  74; 6HR MAX TEMP:  79;

EL DORADO      SUNNY     74  44  34 VRB3      29.95F
6HR MIN TEMP:  73; 6HR MAX TEMP:  77;

DE QUEEN       SUNNY     76  45  33 N5        29.95S
6HR MIN TEMP:  75; 6HR MAX TEMP:  79;

$$

ARZ056-057-069-060100-
SOUTHEAST ARKANSAS

CITY           SKY/WX    TMP DP  RH WIND       PRES   REMARKS
PINE BLUFF     SUNNY     72  42  34 N9        29.94S
6HR MIN TEMP:  72; 6HR MAX TEMP:  76;

STUTTGART      CLEAR     70  43  37 N10       29.95S
6HR MIN TEMP:  70; 6HR MAX TEMP:  75;

MONTICELLO     CLEAR     75  45  34 CALM      29.93F
6HR MIN TEMP:  73; 6HR MAX TEMP:  78;


$$






USA.gov is the U.S. government's official web portal to all federal, state and local government web resources and services.